EW3517 Weather Reports


Display with metric or nautical units.
time (UTC)temp
F
wind
direction
speed
MPH
gust
MPH
rain 1hr
in
rain 24hr
in
rain mn
in
humidity
%
barometer
mb
20260506111514 49 341 0.0 0.0 0.00 0.00 0.00 81 1013.7
20260506110012 49 360 0.0 0.0 0.00 0.00 0.00 80 1013.5
20260506104510 49 26 0.0 0.0 0.00 0.00 0.00 79 1014.2
20260506103022 49 5 0.0 0.0 0.00 0.00 0.00 79 1014.6
20260506101507 49 23 0.0 0.0 0.00 0.00 0.00 78 1014.1
20260506100005 49 36 0.0 0.0 0.00 0.00 0.00 78 1014.1
20260506094502 49 9 0.0 0.0 0.00 0.00 0.00 78 1013.5
20260506093059 49 10 0.0 0.0 0.00 0.00 0.00 78 1013.0
20260506091558 49 49 0.0 0.0 0.00 0.00 0.00 77 1012.7
20260506090056 49 28 0.0 0.0 0.00 0.00 0.00 76 1012.6
20260506084555 49 5 0.0 0.0 0.00 0.00 0.00 75 1012.6
20260506083053 49 55 0.0 0.0 0.00 0.00 0.00 75 1012.2
20260506081552 49 5 0.0 0.0 0.00 0.00 0.00 74 1011.7
20260506073048 49 11 0.0 0.0 0.00 0.00 0.00 73 1011.2
20260506071550 50 15 0.0 0.0 0.00 0.00 0.00 73 1010.9
20260506070104 50 28 0.0 0.0 0.00 0.00 0.00 73 1010.9
20260506061540 50 14 0.0 0.0 0.00 0.00 0.00 72 1011.0
20260506044544 50 40 0.0 0.0 0.00 0.00 0.00 70 1010.8
20260506043032 50 44 0.0 0.0 0.00 0.00 0.00 72 1010.9
20260506041530 50 11 0.0 0.0 0.00 0.00 0.00 72 1010.8
20260506040028 50 11 0.0 0.0 0.00 0.00 0.00 74 1010.7
20260506034528 50 17 0.0 0.0 0.00 0.00 0.00 76 1010.6
20260506033024 49 360 0.0 0.0 0.00 0.00 0.00 79 1010.2
20260506031525 50 360 0.0 0.0 0.00 0.00 0.00 80 1009.4
20260506030024 50 28 0.0 1.0 0.00 0.00 0.00 80 1009.6
20260506024531 50 5 0.0 0.0 0.00 0.00 0.00 81 1009.8
20260506023021 50 36 0.0 0.0 0.00 0.00 0.00 81 1010.0
20260506021519 50 23 0.0 1.0 0.00 0.00 0.00 82 1009.6
20260506020017 50 13 0.0 0.0 0.00 0.00 0.00 82 1009.3
20260506014515 50 11 0.0 0.0 0.00 0.00 0.00 81 1009.2
20260506013018 50 29 0.0 0.0 0.00 0.00 0.00 80 1009.0
20260506011512 50 38 0.0 0.0 0.00 0.00 0.00 80 1008.8
20260506010011 50 22 0.0 0.0 0.00 0.00 0.00 80 1008.5
20260506004505 51 5 0.0 0.0 0.00 0.00 0.00 79 1007.8
20260506003005 51 66 0.0 0.0 0.00 0.00 0.00 79 1007.7
20260506001503 51 321 0.0 0.0 0.00 0.00 0.00 78 1007.5
20260506000002 52 22 0.0 0.0 0.00 0.00 0.00 77 1007.4
20260505234618 52 346 0.0 0.0 0.00 0.00 0.00 75 1007.2
20260505233059 52 80 0.0 0.0 0.00 0.00 0.00 74 1007.8
20260505231559 52 35 0.0 0.0 0.00 0.00 0.00 74 1007.6
20260505230054 53 5 0.0 1.0 0.00 0.00 0.00 73 1006.8
20260505224551 53 355 0.0 0.0 0.00 0.00 0.00 73 1006.9
20260505223100 53 26 0.0 0.0 0.00 0.00 0.00 73 1006.9
20260505221559 53 209 0.0 0.0 0.00 0.00 0.00 73 1006.4
20260505220057 54 19 0.0 0.0 0.00 0.00 0.00 73 1006.6
20260505214602 54 109 0.0 0.0 0.00 0.00 0.00 72 1005.9
20260505213046 55 196 0.0 0.0 0.00 0.00 0.00 72 1005.8
20260505211543 55 18 0.0 0.0 0.00 0.00 0.00 72 1006.0
20260505210043 55 63 0.0 0.0 0.00 0.00 0.00 73 1005.2
20260505204541 55 5 0.0 0.0 0.00 0.00 0.00 73 1006.2
20260505203038 55 355 0.0 0.0 0.00 0.00 0.00 73 1005.7
20260505201536 55 51 0.0 0.0 0.00 0.00 0.00 74 1005.2
20260505200037 55 34 0.0 1.0 0.00 0.00 0.00 75 1005.3
20260505194535 55 23 0.0 0.0 0.00 0.00 0.00 76 1005.4
20260505193033 55 32 0.0 0.0 0.00 0.00 0.00 78 1005.1
20260505191531 55 77 0.0 0.0 0.00 0.00 0.00 79 1004.9
20260505190031 55 40 0.0 0.0 0.00 0.00 0.00 79 1005.0
20260505184527 56 5 0.0 0.0 0.00 0.00 0.00 79 1004.8
20260505183039 56 46 0.0 0.0 0.00 0.00 0.00 77 1004.8
20260505181522 57 53 0.0 0.0 0.00 0.00 0.00 77 1004.4
20260505180120 57 106 0.0 0.0 0.00 0.00 0.00 77 1004.2
20260505174516 57 31 0.0 0.0 0.00 0.00 0.00 79 1003.8
20260505173021 57 355 0.0 0.0 0.00 0.00 0.00 79 1003.6
20260505171513 57 27 0.0 0.0 0.00 0.00 0.00 80 1003.2
20260505170013 57 37 0.0 0.0 0.00 0.00 0.00 80 1003.2
20260505164510 57 5 0.0 0.0 0.00 0.00 0.00 82 1002.9
20260505163009 57 23 0.0 0.0 0.00 0.00 0.00 81 1002.3
20260505161503 58 24 0.0 0.0 0.00 0.00 0.00 81 1001.7
20260505160109 59 40 0.0 1.0 0.00 0.00 0.00 81 1001.1
20260505153052 62 12 0.0 1.0 0.00 0.00 0.00 81 1000.5
20260505151547 63 57 0.0 0.0 0.00 0.00 0.00 80 1000.0
20260505124525 69 79 0.0 0.0 0.00 0.00 0.00 81 997.7
20260505123023 69 33 0.0 0.0 0.00 0.00 0.00 80 997.5
20260505121524 69 14 0.0 0.0 0.00 0.00 0.00 79 997.3
20260505120019 70 14 0.0 0.0 0.00 0.00 0.00 77 997.2
20260505114515 70 14 0.0 0.0 0.00 0.00 0.00 76 996.9
20260505113013 71 14 0.0 0.0 0.00 0.00 0.00 74 996.4